[[{"header":{"parameterUnit":"m.s-1","parameterCategory":1,"la1":30.2991,"la2":30.254,"lo1":-89.0895,"lo2":-89.0444,"dy":0.0017,"dx":0.0017,"nx":28,"ny":28,"refTime":"2025-08-21T03:00:00:Z","depth":0,"parameterNumber":2,"parameterNumberName":"U-component_of_WINDS"},"data":[0,0,0,0,0,0,0,0,0,0,0,0,0,0,0,0,0,0,0,0,0,0,0,0,0,0,0,0,0,0,0,0,0,0,0,0,0,0,0,0,0,0,0,0,0,0,0,0,0,0,0,0,0,0,0,0,0,0,0.2561,0.2562,0,0.2699,0.2701,0.2702,0.278,0.278,0.278,0.2781,0.2926,0.2929,0.2933,0,0,0,0,0,0,0,0,0,0,0,0,0,0.2365,0.2369,0.256,0.2562,0.2564,0.2699,0.2701,0.2703,0.278,0.278,0.278,0.2781,0.2925,0.2929,0.2933,0,0,0,0,0,0,0,0,0,0,0,0,0,0.2472,0.237,0.256,0.2619,0.2625,0.2698,0.2701,0.2703,0.278,0.278,0.2781,0.2781,0.2923,0.2928,0.2934,0.2961,0,0,0.2951,0.2953,0,0,0,0,0,0,0,0,0.2466,0.2479,0.2608,0.2615,0.2622,0.2723,0.2685,0.279,0.278,0.2721,0.2781,0.2781,0.2858,0.2869,0.2894,0.2967,0.2974,0.2951,0.2954,0.2957,0.2958,0,0,0,0,0,0,0,0.2458,0.2473,0.2616,0.261,0.2619,0.2639,0.2654,0.2705,0.2786,0.2726,0.2732,0.2748,0.2862,0.2889,0.2898,0.2976,0.2951,0.2956,0.2959,0.2961,0.3077,0.3077,0,0,0,0,0,0,0.2441,0.2467,0.2611,0.262,0.2543,0.2642,0.2659,0.269,0.2786,0.2801,0.2747,0.2751,0.2879,0.2892,0.2904,0.2941,0.2957,0.2962,0.2965,0.3078,0.3077,0.3077,0,0,0,0,0,0,0.2436,0.2453,0.2606,0.2545,0.2566,0.2645,0.2679,0.2693,0.2719,0.2801,0.2816,0.2759,0.288,0.2896,0.2946,0.2947,0.2964,0.2969,0.3078,0.3077,0.3077,0.3015,0,0,0,0,0,0,0.2431,0.2451,0.2461,0.2544,0.2569,0.2644,0.2679,0.2695,0.2728,0.2734,0.2817,0.2831,0.2882,0.2937,0.2951,0.2955,0.2974,0.3078,0.3078,0.3077,0.3017,0.3012,0.3008,0,0,0,0,0,0.2423,0.2439,0.2461,0.2478,0.2583,0.2644,0.2658,0.2715,0.2728,0.2739,0.2792,0.2828,0.2944,0.2941,0.2958,0.2963,0.3078,0.3078,0.3077,0.3019,0.3013,0.3008,0,0,0,0,0,0,0.2355,0.2451,0.2477,0.252,0.2573,0.2657,0.2673,0.2707,0.2758,0.2762,0.2831,0.2849,0.2892,0.2933,0.2928,0.2994,0.3015,0.3018,0.2965,0.2961,0.2956,0.2945,0.2978,0,0,0,0,0,0.2345,0.2385,0.2467,0.2497,0.2523,0.2593,0.2622,0.2661,0.2719,0.2742,0.2799,0.2854,0.2904,0.2935,0.2984,0.3024,0.3043,0.3035,0.3031,0.3027,0.3028,0.3052,0.3049,0.3076,0.3076,0.3076,0,0,0.2324,0.2382,0.2403,0.2485,0.2531,0.2572,0.2611,0.2653,0.2684,0.2749,0.2799,0.2842,0.2909,0.2953,0.2975,0.2988,0.3025,0.3026,0.3023,0.3027,0.3051,0.3048,0.3046,0.3075,0.3075,0.3075,0,0,0.2308,0.2355,0.2385,0.243,0.2499,0.2545,0.2552,0.2631,0.2662,0.2712,0.2761,0.28,0.2883,0.2929,0.2963,0.2963,0.2998,0.2978,0.2955,0.2977,0.2974,0.2973,0.2972,0.2971,0.2979,0.2979,0.2979,0,0.2274,0.2337,0.2397,0.2435,0.247,0.2529,0.256,0.2601,0.2682,0.2705,0.2718,0.2823,0.2873,0.2928,0.2928,0.2954,0.2964,0.2968,0.297,0.2969,0.2968,0.2969,0.2968,0.2976,0.2976,0.2977,0.2977,0,0.2292,0.2334,0.2351,0.2426,0.2463,0.2497,0.2563,0.2593,0.2629,0.2674,0.2725,0.2786,0.2849,0.2865,0.2902,0.2926,0.2932,0.2956,0.2979,0.2962,0.2963,0.2964,0.2972,0.2973,0.2974,0.2974,0,0,0.2236,0.2344,0.2348,0.2383,0.2463,0.2498,0.2535,0.2596,0.262,0.2674,0.2707,0.2776,0.2799,0.2838,0.288,0.2899,0.2894,0.2922,0.2924,0.2913,0.2924,0.2904,0.2903,0.2918,0.2918,0.2919,0.2918,0,0.223,0.2299,0.2354,0.2402,0.2442,0.2499,0.2532,0.2585,0.2628,0.2669,0.2718,0.2765,0.2793,0.2816,0.2838,0.289,0.2897,0.2891,0.295,0.2951,0.293,0.2904,0.2883,0.2879,0.2919,0.2919,0.2919,0,0.2232,0.2283,0.2335,0.241,0.2429,0.2457,0.2517,0.2556,0.2617,0.2647,0.2689,0.2733,0.2775,0.2794,0.2854,0.2849,0.2876,0.2906,0.2907,0.2914,0.2933,0.2909,0.288,0.2879,0.2921,0.2921,0.292,0,0.2185,0.2267,0.2308,0.2337,0.2426,0.2444,0.2482,0.2544,0.2576,0.2629,0.265,0.2707,0.2739,0.2782,0.284,0.2848,0.2893,0.2917,0.292,0.2918,0.2926,0.2925,0.2899,0.2945,0.2945,0.2945,0.2945,0,0.2172,0.2202,0.2288,0.2313,0.2348,0.2412,0.2445,0.2488,0.2542,0.2577,0.2631,0.2663,0.2737,0.2779,0.2824,0.2866,0.2881,0.2906,0.2918,0.2901,0.2897,0.2919,0.2921,0.2945,0.2945,0.2945,0.2945,0,0.2125,0.2184,0.2233,0.2313,0.2334,0.2356,0.2424,0.2452,0.2498,0.2542,0.2556,0.2629,0.268,0.2742,0.2814,0.2845,0.2882,0.29,0.2861,0.2867,0.2866,0.2865,0.2853,0.2855,0.2899,0.2899,0.2898,0,0.2112,0.2136,0.2218,0.2245,0.2281,0.2324,0.2358,0.2421,0.2454,0.2525,0.2543,0.2599,0.2646,0.2725,0.2785,0.284,0.286,0.2852,0.2868,0.285,0.2858,0.2856,0.2858,0.2847,0.2846,0.2846,0.2845,0,0.2083,0.2111,0.2156,0.2212,0.225,0.2297,0.2347,0.2366,0.244,0.2474,0.2526,0.2563,0.2635,0.2689,0.2752,0.2792,0.2831,0.2839,0.2843,0.2825,0.2801,0.2813,0.2848,0.2839,0.284,0.284,0.2841,0.2841,0.2052,0.2076,0.2137,0.2186,0.223,0.2275,0.2304,0.2353,0.2398,0.2461,0.2497,0.2548,0.2609,0.2697,0.2735,0.2777,0.2791,0.2796,0.2797,0.2797,0.2791,0.2795,0.2789,0.2789,0.2789,0.2789,0.279,0,0.2025,0.2067,0.2112,0.2179,0.2217,0.225,0.2306,0.2336,0.238,0.2433,0.2479,0.2539,0.2591,0.2655,0.2712,0.2733,0.2752,0.2746,0.2744,0.2753,0.2776,0.2767,0.2729,0.2729,0.2729,0.2729,0.2729,0.2729,0.2015,0.2057,0.2092,0.2156,0.2199,0.2248,0.2278,0.2319,0.2362,0.2426,0.247,0.2511,0.2569,0.263,0.268,0.2697,0.2715,0.2703,0.2726,0.2746,0.2751,0.2756,0.2748,0.2707,0.2707,0.2699,0.2699,0.2699]},{"header":{"parameterUnit":"m.s-1","parameterCategory":1,"la1":30.2991,"la2":30.254,"lo1":-89.0895,"lo2":-89.0444,"dy":0.0017,"dx":0.0017,"nx":28,"ny":28,"refTime":"2025-08-21T03:00:00:Z","depth":0,"parameterNumber":3,"parameterNumberName":"V-component_of_WINDS"},"data":[0,0,0,0,0,0,0,0,0,0,0,0,0,0,0,0,0,0,0,0,0,0,0,0,0,0,0,0,0,0,0,0,0,0,0,0,0,0,0,0,0,0,0,0,0,0,0,0,0,0,0,0,0,0,0,0,0,0,3.5874,3.5874,0,3.5878,3.5878,3.5878,3.5854,3.5854,3.5853,3.5852,3.5856,3.5856,3.5857,0,0,0,0,0,0,0,0,0,0,0,0,0,3.5845,3.5846,3.5874,3.5874,3.5874,3.5878,3.5878,3.5878,3.5854,3.5854,3.5853,3.5852,3.5855,3.5856,3.5857,0,0,0,0,0,0,0,0,0,0,0,0,0,3.5854,3.5846,3.5874,3.5863,3.5862,3.5878,3.5878,3.5878,3.5855,3.5854,3.5853,3.5852,3.5855,3.5856,3.5857,3.5884,0,0,3.586,3.5861,0,0,0,0,0,0,0,0,3.5854,3.5855,3.5864,3.5864,3.5863,3.5865,3.5869,3.588,3.5855,3.5857,3.5852,3.5851,3.5859,3.586,3.5863,3.5884,3.5884,3.586,3.5861,3.5862,3.5862,0,0,0,0,0,0,0,3.5853,3.5855,3.5875,3.5865,3.5863,3.5857,3.5857,3.5871,3.5864,3.5857,3.5855,3.5856,3.5859,3.5862,3.5863,3.5884,3.586,3.5861,3.5862,3.5862,3.5925,3.5926,0,0,0,0,0,0,3.5854,3.5854,3.5875,3.5875,3.5856,3.5858,3.5859,3.5865,3.5864,3.5863,3.5857,3.5855,3.5861,3.5862,3.5863,3.5892,3.5862,3.5863,3.5863,3.5924,3.5926,3.5927,0,0,0,0,0,0,3.5853,3.5856,3.5875,3.5865,3.5866,3.586,3.5867,3.5865,3.5869,3.5864,3.5862,3.5862,3.586,3.5861,3.5878,3.5892,3.5863,3.5864,3.5923,3.5925,3.5926,3.5953,0,0,0,0,0,0,3.5853,3.5856,3.5866,3.5865,3.5867,3.5891,3.5868,3.5866,3.5871,3.5868,3.5868,3.5867,3.5859,3.5877,3.5879,3.5893,3.5865,3.5922,3.5924,3.5926,3.5951,3.5955,3.5959,0,0,0,0,0,3.5852,3.5874,3.5867,3.587,3.588,3.5892,3.5893,3.5884,3.5872,3.5882,3.5878,3.5867,3.5891,3.5879,3.5881,3.5896,3.5921,3.5923,3.5925,3.5949,3.5954,3.5959,0,0,0,0,0,0,3.5877,3.5874,3.5866,3.5888,3.5891,3.5888,3.59,3.5891,3.5896,3.5894,3.5882,3.5882,3.5901,3.59,3.5887,3.5921,3.5903,3.5906,3.592,3.5925,3.593,3.5929,3.5866,0,0,0,0,0,3.5886,3.5896,3.5892,3.5912,3.5914,3.5907,3.5912,3.5905,3.5907,3.5907,3.5905,3.5907,3.5915,3.592,3.5927,3.5951,3.595,3.5962,3.5966,3.5969,3.5972,3.5983,3.5988,3.5934,3.5934,3.5934,0,0,3.5903,3.5902,3.5909,3.5917,3.5918,3.5928,3.5908,3.592,3.5927,3.5909,3.5925,3.5923,3.5925,3.5945,3.5953,3.5944,3.5986,3.5972,3.5975,3.5976,3.5986,3.5991,3.5995,3.5936,3.5936,3.5935,0,0,3.5939,3.594,3.5956,3.5957,3.5959,3.5954,3.5958,3.5957,3.5955,3.597,3.5957,3.5965,3.5979,3.598,3.5983,3.6018,3.6007,3.6021,3.6042,3.6053,3.6057,3.6061,3.6072,3.6077,3.6024,3.6024,3.6024,0,3.596,3.5975,3.5966,3.5978,3.5981,3.5966,3.5981,3.5983,3.5987,3.5989,3.598,3.5996,3.5996,3.6015,3.6024,3.6027,3.603,3.6021,3.6058,3.6061,3.6064,3.6075,3.608,3.6025,3.6025,3.6025,3.6025,0,3.6,3.601,3.6023,3.6027,3.6032,3.6046,3.6038,3.6045,3.6037,3.6033,3.6048,3.6048,3.6054,3.6058,3.6051,3.6076,3.6071,3.606,3.6042,3.6071,3.6081,3.6085,3.6028,3.6027,3.6027,3.6026,0,0,3.6052,3.605,3.6054,3.6055,3.6056,3.6063,3.6077,3.6082,3.6087,3.609,3.61,3.6112,3.6102,3.6104,3.6097,3.6107,3.6134,3.6095,3.6094,3.6101,3.616,3.6167,3.6173,3.6127,3.6128,3.6128,3.6159,0,3.6086,3.6108,3.61,3.6122,3.6131,3.6116,3.6127,3.6128,3.6125,3.6132,3.6128,3.6136,3.6122,3.6124,3.6133,3.6129,3.6145,3.6127,3.6135,3.6136,3.6134,3.6178,3.6186,3.6216,3.6163,3.6164,3.6165,0,3.6129,3.6133,3.6156,3.6154,3.6157,3.6168,3.6171,3.6179,3.6179,3.6176,3.6179,3.6169,3.6181,3.6165,3.618,3.6168,3.6171,3.6169,3.617,3.617,3.6151,3.6177,3.6225,3.6229,3.6171,3.617,3.617,0,3.6162,3.6174,3.6189,3.6191,3.6189,3.6196,3.6195,3.6195,3.6199,3.6202,3.6204,3.621,3.6212,3.6216,3.6208,3.6197,3.6225,3.6207,3.6222,3.6222,3.6227,3.6227,3.6275,3.6231,3.6231,3.6231,3.6231,0,3.6201,3.6215,3.6204,3.6213,3.6229,3.6219,3.6235,3.6232,3.6232,3.624,3.6228,3.6236,3.6225,3.6232,3.6226,3.6239,3.6241,3.6238,3.6236,3.6238,3.6238,3.6239,3.6237,3.6232,3.6232,3.6232,3.6232,0,3.6241,3.6234,3.6249,3.6246,3.6245,3.6257,3.6254,3.6262,3.6257,3.6268,3.627,3.6263,3.627,3.6262,3.6269,3.6265,3.6283,3.6278,3.6282,3.6281,3.6295,3.6293,3.6344,3.635,3.6304,3.6304,3.6304,0,3.6265,3.6276,3.6273,3.6278,3.6278,3.6285,3.6289,3.6279,3.6283,3.6284,3.6292,3.6298,3.6302,3.6314,3.631,3.6315,3.6309,3.6327,3.631,3.6312,3.6308,3.6307,3.6308,3.633,3.6331,3.6331,3.6331,0,3.6308,3.6304,3.631,3.6314,3.6319,3.6322,3.6323,3.6328,3.6318,3.6323,3.633,3.6333,3.634,3.6346,3.6349,3.6348,3.6338,3.6337,3.634,3.6342,3.6344,3.6342,3.629,3.6336,3.6335,3.6335,3.6335,3.6334,3.634,3.6349,3.6348,3.6354,3.6355,3.6357,3.6364,3.636,3.6366,3.637,3.6364,3.6372,3.6372,3.6375,3.6376,3.6382,3.6374,3.6379,3.638,3.6382,3.6383,3.6344,3.6382,3.6382,3.6382,3.6382,3.6382,0,3.6382,3.6381,3.6387,3.6389,3.6394,3.6384,3.6386,3.639,3.6398,3.6398,3.6402,3.641,3.6415,3.6411,3.6416,3.6421,3.6417,3.6423,3.6422,3.6421,3.639,3.6386,3.6426,3.6426,3.6426,3.6426,3.6426,3.6426,3.6404,3.6417,3.6413,3.6426,3.6424,3.6432,3.6434,3.6435,3.6435,3.6444,3.6449,3.6446,3.6444,3.6448,3.6453,3.6451,3.6453,3.6461,3.6457,3.6428,3.6424,3.642,3.6416,3.6461,3.6461,3.6488,3.6488,3.6488]}]]